| time (UTC) | temp C | wind direction | speed KPH | gust KPH | rain 1hr cm | rain 24hr cm | rain mn cm | humidity % | barometer mb |
| 20260504151103 | 21 | 103 | 3.2 | 4.8 | 0.00 | 0.00 | 0.00 | 52 | 1016.3 |
| 20260504150603 | 21 | 292 | 0.0 | 4.8 | 0.00 | 0.00 | 0.00 | 51 | 1016.2 |
| 20260504150103 | 21 | 299 | 1.6 | 8.0 | 0.00 | 0.00 | 0.00 | 51 | 1016.3 |
| 20260504141103 | 19 | 117 | 0.0 | 4.8 | 0.00 | 0.00 | 0.00 | 56 | 1016.7 |
| 20260504140603 | 18 | 244 | 1.6 | 4.8 | 0.00 | 0.00 | 0.00 | 55 | 1016.8 |
| 20260504140103 | 18 | 119 | 1.6 | 3.2 | 0.00 | 0.00 | 0.00 | 56 | 1016.9 |
| 20260504130603 | 13 | 227 | 0.0 | 0.0 | 0.00 | 0.00 | 0.00 | 83 | 1017.0 |
| 20260504120103 | 9 | 0 | 0.0 | 0.0 | 0.00 | 0.00 | 0.00 | 91 | 1016.6 |
| 20260504110603 | 8 | 0 | 0.0 | 0.0 | 0.00 | 0.00 | 0.00 | 89 | 1016.2 |
| 20260504100603 | 8 | 0 | 0.0 | 0.0 | 0.00 | 0.00 | 0.00 | 88 | 1015.9 |
| 20260504081603 | 8 | 0 | 0.0 | 0.0 | 0.00 | 0.00 | 0.00 | 86 | 1016.0 |
| 20260504081103 | 8 | 0 | 0.0 | 0.0 | 0.00 | 0.00 | 0.00 | 86 | 1016.0 |
| 20260504080604 | 8 | 0 | 0.0 | 0.0 | 0.00 | 0.00 | 0.00 | 86 | 1016.0 |
| 20260504080104 | 8 | 0 | 0.0 | 0.0 | 0.00 | 0.00 | 0.00 | 86 | 1016.0 |
| 20260504070103 | 9 | 0 | 0.0 | 0.0 | 0.00 | 0.00 | 0.00 | 84 | 1016.3 |
| 20260504050603 | 10 | 0 | 0.0 | 0.0 | 0.00 | 0.00 | 0.00 | 79 | 1017.3 |
| 20260504045604 | 10 | 0 | 0.0 | 0.0 | 0.00 | 0.00 | 0.00 | 79 | 1017.2 |
| 20260504044603 | 10 | 0 | 0.0 | 0.0 | 0.00 | 0.00 | 0.00 | 79 | 1017.2 |
| 20260504044103 | 10 | 0 | 0.0 | 0.0 | 0.00 | 0.00 | 0.00 | 79 | 1017.2 |
| 20260504043604 | 10 | 0 | 0.0 | 0.0 | 0.00 | 0.00 | 0.00 | 79 | 1017.2 |
| 20260504043104 | 10 | 0 | 0.0 | 0.0 | 0.00 | 0.00 | 0.00 | 79 | 1017.2 |
| 20260504042104 | 10 | 0 | 0.0 | 0.0 | 0.00 | 0.00 | 0.00 | 78 | 1017.0 |
| 20260504041604 | 10 | 0 | 0.0 | 0.0 | 0.00 | 0.00 | 0.00 | 77 | 1017.0 |
| 20260504041103 | 10 | 0 | 0.0 | 0.0 | 0.00 | 0.00 | 0.00 | 76 | 1017.0 |
| 20260504040604 | 10 | 0 | 0.0 | 0.0 | 0.00 | 0.00 | 0.00 | 76 | 1017.0 |
| 20260504040103 | 10 | 0 | 0.0 | 0.0 | 0.00 | 0.00 | 0.00 | 76 | 1017.1 |
| 20260504035604 | 10 | 0 | 0.0 | 0.0 | 0.00 | 0.00 | 0.00 | 75 | 1017.2 |
| 20260504034103 | 11 | 0 | 0.0 | 0.0 | 0.00 | 0.00 | 0.00 | 74 | 1017.4 |
| 20260504033603 | 11 | 0 | 0.0 | 0.0 | 0.00 | 0.00 | 0.00 | 74 | 1017.5 |
| 20260504033103 | 11 | 0 | 0.0 | 0.0 | 0.00 | 0.00 | 0.00 | 73 | 1017.5 |
| 20260504032603 | 11 | 0 | 0.0 | 0.0 | 0.00 | 0.00 | 0.00 | 73 | 1017.6 |
| 20260504032104 | 11 | 0 | 0.0 | 0.0 | 0.00 | 0.00 | 0.00 | 73 | 1017.6 |
| 20260504031603 | 11 | 0 | 0.0 | 0.0 | 0.00 | 0.00 | 0.00 | 73 | 1017.7 |
| 20260504031104 | 11 | 0 | 0.0 | 0.0 | 0.00 | 0.00 | 0.00 | 72 | 1017.7 |
| 20260504030603 | 11 | 0 | 0.0 | 0.0 | 0.00 | 0.00 | 0.00 | 72 | 1017.8 |
| 20260504030104 | 11 | 0 | 0.0 | 0.0 | 0.00 | 0.00 | 0.00 | 71 | 1017.8 |
| 20260504025103 | 12 | 0 | 0.0 | 0.0 | 0.00 | 0.00 | 0.00 | 70 | 1017.7 |
| 20260504024604 | 12 | 0 | 0.0 | 0.0 | 0.00 | 0.00 | 0.00 | 69 | 1017.7 |
| 20260504024103 | 12 | 0 | 0.0 | 0.0 | 0.00 | 0.00 | 0.00 | 68 | 1017.7 |
| 20260504023604 | 12 | 343 | 0.0 | 0.0 | 0.00 | 0.00 | 0.00 | 67 | 1017.7 |
| 20260504023104 | 12 | 269 | 0.0 | 0.0 | 0.00 | 0.00 | 0.00 | 66 | 1017.6 |
| 20260504022603 | 12 | 249 | 0.0 | 0.0 | 0.00 | 0.00 | 0.00 | 66 | 1017.6 |
| 20260504022103 | 12 | 227 | 0.0 | 0.0 | 0.00 | 0.00 | 0.00 | 65 | 1017.6 |
| 20260504021604 | 12 | 227 | 0.0 | 0.0 | 0.00 | 0.00 | 0.00 | 64 | 1017.5 |
| 20260504021103 | 13 | 227 | 0.0 | 0.0 | 0.00 | 0.00 | 0.00 | 63 | 1017.4 |
| 20260504020603 | 13 | 227 | 0.0 | 0.0 | 0.00 | 0.00 | 0.00 | 62 | 1017.3 |
| 20260504020103 | 13 | 227 | 0.0 | 0.0 | 0.00 | 0.00 | 0.00 | 62 | 1017.3 |
| 20260504015603 | 13 | 227 | 0.0 | 0.0 | 0.00 | 0.00 | 0.00 | 61 | 1017.2 |
| 20260504015103 | 13 | 227 | 0.0 | 0.0 | 0.00 | 0.00 | 0.00 | 60 | 1017.2 |
| 20260504014604 | 13 | 227 | 0.0 | 0.0 | 0.00 | 0.00 | 0.00 | 60 | 1017.1 |
| 20260504014103 | 14 | 227 | 0.0 | 0.0 | 0.00 | 0.00 | 0.00 | 60 | 1017.0 |
| 20260504013103 | 14 | 227 | 0.0 | 0.0 | 0.00 | 0.00 | 0.00 | 57 | 1016.7 |
| 20260504012104 | 15 | 227 | 0.0 | 0.0 | 0.00 | 0.00 | 0.00 | 56 | 1016.7 |
| 20260504011603 | 15 | 227 | 0.0 | 0.0 | 0.00 | 0.00 | 0.00 | 54 | 1016.6 |
| 20260504011103 | 15 | 227 | 0.0 | 0.0 | 0.00 | 0.00 | 0.00 | 52 | 1016.6 |
| 20260504010104 | 16 | 227 | 0.0 | 0.0 | 0.00 | 0.00 | 0.00 | 51 | 1016.6 |
| 20260504005604 | 16 | 227 | 0.0 | 0.0 | 0.00 | 0.00 | 0.00 | 51 | 1016.6 |
| 20260504005104 | 16 | 227 | 0.0 | 0.0 | 0.00 | 0.00 | 0.00 | 50 | 1016.7 |
| 20260504004604 | 16 | 227 | 0.0 | 0.0 | 0.00 | 0.00 | 0.00 | 48 | 1016.7 |
| 20260504004103 | 17 | 227 | 0.0 | 0.0 | 0.00 | 0.00 | 0.00 | 48 | 1016.6 |
| 20260504003604 | 17 | 227 | 0.0 | 0.0 | 0.00 | 0.00 | 0.00 | 47 | 1016.6 |
| 20260504003103 | 17 | 227 | 0.0 | 0.0 | 0.00 | 0.00 | 0.00 | 45 | 1016.6 |
| 20260504002604 | 17 | 227 | 0.0 | 0.0 | 0.00 | 0.00 | 0.00 | 43 | 1016.7 |
| 20260504002103 | 17 | 227 | 0.0 | 0.0 | 0.00 | 0.00 | 0.00 | 43 | 1016.7 |
| 20260504001604 | 17 | 227 | 0.0 | 0.0 | 0.00 | 0.00 | 0.00 | 42 | 1016.8 |
| 20260504001104 | 17 | 227 | 0.0 | 0.0 | 0.00 | 0.00 | 0.00 | 42 | 1016.8 |
| 20260504000603 | 18 | 227 | 0.0 | 0.0 | 0.00 | 0.00 | 0.00 | 42 | 1016.8 |
| 20260503234603 | 18 | 225 | 1.6 | 4.8 | 0.00 | 0.00 | 0.00 | 40 | 1016.8 |
| 20260503234103 | 18 | 225 | 1.6 | 3.2 | 0.00 | 0.00 | 0.00 | 40 | 1016.8 |
| 20260503233603 | 18 | 224 | 0.0 | 3.2 | 0.00 | 0.00 | 0.00 | 40 | 1016.8 |
| 20260503233103 | 18 | 224 | 1.6 | 3.2 | 0.00 | 0.00 | 0.00 | 39 | 1016.9 |
| 20260503232603 | 19 | 223 | 3.2 | 4.8 | 0.00 | 0.00 | 0.00 | 39 | 1016.9 |
| 20260503231604 | 18 | 252 | 1.6 | 4.8 | 0.00 | 0.00 | 0.00 | 40 | 1017.0 |
| 20260503230603 | 19 | 267 | 1.6 | 4.8 | 0.00 | 0.00 | 0.00 | 40 | 1017.0 |
| 20260503230104 | 19 | 287 | 1.6 | 4.8 | 0.00 | 0.00 | 0.00 | 40 | 1017.1 |
| 20260503225604 | 19 | 254 | 1.6 | 4.8 | 0.00 | 0.00 | 0.00 | 40 | 1017.2 |
| 20260503225104 | 19 | 260 | 1.6 | 4.8 | 0.00 | 0.00 | 0.00 | 39 | 1017.1 |
| 20260503224604 | 19 | 260 | 1.6 | 4.8 | 0.00 | 0.00 | 0.00 | 38 | 1017.2 |
| 20260503224103 | 19 | 261 | 3.2 | 4.8 | 0.00 | 0.00 | 0.00 | 40 | 1017.1 |
| 20260503223603 | 19 | 274 | 1.6 | 4.8 | 0.00 | 0.00 | 0.00 | 40 | 1017.1 |
| 20260503222105 | 19 | 254 | 1.6 | 4.8 | 0.00 | 0.00 | 0.00 | 38 | 1017.3 |
| 20260503221103 | 20 | 251 | 4.8 | 8.0 | 0.00 | 0.00 | 0.00 | 38 | 1017.5 |
| 20260503220604 | 20 | 238 | 3.2 | 4.8 | 0.00 | 0.00 | 0.00 | 38 | 1017.4 |
| 20260503220104 | 19 | 228 | 1.6 | 4.8 | 0.00 | 0.00 | 0.00 | 38 | 1017.5 |
| 20260503215603 | 19 | 250 | 3.2 | 4.8 | 0.00 | 0.00 | 0.00 | 37 | 1017.5 |
| 20260503214604 | 20 | 301 | 3.2 | 8.0 | 0.00 | 0.00 | 0.00 | 37 | 1017.6 |
| 20260503213604 | 21 | 263 | 3.2 | 4.8 | 0.00 | 0.00 | 0.00 | 35 | 1017.7 |
| 20260503213104 | 21 | 245 | 1.6 | 4.8 | 0.00 | 0.00 | 0.00 | 36 | 1017.7 |
| 20260503212603 | 21 | 243 | 1.6 | 3.2 | 0.00 | 0.00 | 0.00 | 37 | 1017.8 |
| 20260503212103 | 20 | 250 | 0.0 | 4.8 | 0.00 | 0.00 | 0.00 | 37 | 1017.9 |
| 20260503211104 | 20 | 14 | 1.6 | 4.8 | 0.00 | 0.00 | 0.00 | 39 | 1017.9 |
| 20260503210603 | 20 | 258 | 3.2 | 9.7 | 0.00 | 0.00 | 0.00 | 38 | 1018.0 |
| 20260503205602 | 20 | 275 | 1.6 | 4.8 | 0.00 | 0.00 | 0.00 | 39 | 1018.0 |
| 20260503204602 | 20 | 261 | 3.2 | 4.8 | 0.00 | 0.00 | 0.00 | 35 | 1018.1 |
| 20260503203602 | 21 | 253 | 3.2 | 8.0 | 0.00 | 0.00 | 0.00 | 34 | 1018.2 |
| 20260503203103 | 20 | 257 | 1.6 | 4.8 | 0.00 | 0.00 | 0.00 | 38 | 1018.3 |
| 20260503202603 | 20 | 250 | 1.6 | 4.8 | 0.00 | 0.00 | 0.00 | 37 | 1018.4 |
| 20260503201603 | 19 | 252 | 3.2 | 4.8 | 0.00 | 0.00 | 0.00 | 36 | 1018.7 |
| 20260503200603 | 18 | 292 | 1.6 | 4.8 | 0.00 | 0.00 | 0.00 | 40 | 1019.0 |
| 20260503195603 | 20 | 285 | 1.6 | 4.8 | 0.00 | 0.00 | 0.00 | 40 | 1019.2 |
| 20260503195103 | 20 | 273 | 3.2 | 9.7 | 0.00 | 0.00 | 0.00 | 41 | 1019.1 |
| 20260503194602 | 20 | 253 | 1.6 | 4.8 | 0.00 | 0.00 | 0.00 | 42 | 1019.3 |
| 20260503194102 | 20 | 257 | 1.6 | 11.3 | 0.00 | 0.00 | 0.00 | 41 | 1019.4 |
| 20260503193602 | 20 | 328 | 1.6 | 9.7 | 0.00 | 0.00 | 0.00 | 43 | 1019.5 |
| 20260503193103 | 19 | 255 | 1.6 | 4.8 | 0.00 | 0.00 | 0.00 | 43 | 1019.6 |
| 20260503192602 | 18 | 236 | 3.2 | 9.7 | 0.00 | 0.00 | 0.00 | 44 | 1019.7 |
| 20260503191603 | 19 | 260 | 1.6 | 4.8 | 0.00 | 0.00 | 0.00 | 42 | 1019.9 |
| 20260503191102 | 19 | 264 | 3.2 | 12.9 | 0.00 | 0.00 | 0.00 | 43 | 1020.0 |
| 20260503190603 | 19 | 246 | 3.2 | 8.0 | 0.00 | 0.00 | 0.00 | 44 | 1020.0 |
| 20260503185603 | 20 | 290 | 3.2 | 9.7 | 0.00 | 0.00 | 0.00 | 43 | 1020.1 |
| 20260503185102 | 20 | 266 | 3.2 | 8.0 | 0.00 | 0.00 | 0.00 | 42 | 1020.1 |
| 20260503184603 | 20 | 272 | 1.6 | 3.2 | 0.00 | 0.00 | 0.00 | 44 | 1020.2 |
| 20260503184102 | 20 | 274 | 1.6 | 8.0 | 0.00 | 0.00 | 0.00 | 44 | 1020.3 |
| 20260503183603 | 19 | 70 | 3.2 | 4.8 | 0.00 | 0.00 | 0.00 | 47 | 1020.3 |
| 20260503183104 | 18 | 102 | 1.6 | 4.8 | 0.00 | 0.00 | 0.00 | 46 | 1020.3 |
| 20260503182603 | 18 | 239 | 3.2 | 11.3 | 0.00 | 0.00 | 0.00 | 46 | 1020.4 |
| 20260503182103 | 18 | 273 | 3.2 | 9.7 | 0.00 | 0.00 | 0.00 | 45 | 1020.4 |
| 20260503181103 | 19 | 262 | 4.8 | 9.7 | 0.00 | 0.00 | 0.00 | 43 | 1020.5 |
| 20260503180603 | 19 | 281 | 1.6 | 4.8 | 0.00 | 0.00 | 0.00 | 45 | 1020.6 |
| 20260503180103 | 18 | 316 | 1.6 | 3.2 | 0.00 | 0.00 | 0.00 | 46 | 1020.6 |
| 20260503175602 | 18 | 331 | 1.6 | 4.8 | 0.00 | 0.00 | 0.00 | 48 | 1020.7 |
| 20260503175103 | 18 | 207 | 1.6 | 8.0 | 0.00 | 0.00 | 0.00 | 49 | 1020.7 |
| 20260503174603 | 18 | 80 | 3.2 | 4.8 | 0.00 | 0.00 | 0.00 | 52 | 1020.8 |
| 20260503174103 | 18 | 261 | 3.2 | 9.7 | 0.00 | 0.00 | 0.00 | 47 | 1020.8 |
| 20260503173602 | 18 | 276 | 3.2 | 4.8 | 0.00 | 0.00 | 0.00 | 45 | 1020.9 |
| 20260503172602 | 18 | 101 | 1.6 | 4.8 | 0.00 | 0.00 | 0.00 | 49 | 1021.0 |
| 20260503172103 | 17 | 248 | 0.0 | 3.2 | 0.00 | 0.00 | 0.00 | 48 | 1021.1 |
| 20260503171603 | 17 | 261 | 3.2 | 9.7 | 0.00 | 0.00 | 0.00 | 46 | 1021.2 |
| 20260503171102 | 17 | 271 | 1.6 | 4.8 | 0.00 | 0.00 | 0.00 | 47 | 1021.2 |
| 20260503170603 | 17 | 254 | 1.6 | 3.2 | 0.00 | 0.00 | 0.00 | 44 | 1021.3 |
| 20260503170103 | 17 | 230 | 1.6 | 3.2 | 0.00 | 0.00 | 0.00 | 45 | 1021.4 |
| 20260503160103 | 15 | 252 | 1.6 | 4.8 | 0.00 | 0.00 | 0.00 | 54 | 1021.7 |